Time,TemperatureF,DewpointF,PressureIn,WindDirection,WindDirectionDegrees,WindSpeedMPH,WindSpeedGustMPH,Humidity,HourlyPrecipIn,Conditions,Clouds,dailyrainin,SolarRadiationWatts/m^2,SoftwareType,DateUTC
2013-03-10 00:04:00,37.3,34.9,29.67,SE,138,0.0,4.0,91,0.00,,,0.00,0.0,WUHU216DAVISVP2,2013-03-10 00:04:00,
2013-03-10 00:09:00,37.3,34.9,29.67,SSE,151,0.0,4.0,91,0.00,,,0.00,0.0,WUHU216DAVISVP2,2013-03-10 00:09:00,
2013-03-10 00:14:00,37.2,34.5,29.67,ENE,76,0.0,4.0,90,0.00,,,0.00,0.0,WUHU216DAVISVP2,2013-03-10 00:14:00,
2013-03-10 00:19:00,37.1,34.4,29.67,East,87,0.0,4.0,90,0.00,,,0.00,0.0,WUHU216DAVISVP2,2013-03-10 00:19:00,
2013-03-10 00:24:00,37.1,34.4,29.67,East,92,0.0,4.0,90,0.00,,,0.00,0.0,WUHU216DAVISVP2,2013-03-10 00:24:00,
2013-03-10 00:29:00,37.1,34.4,29.67,East,92,0.0,4.0,90,0.00,,,0.00,0.0,WUHU216DAVISVP2,2013-03-10 00:29:00,
2013-03-10 00:34:00,37.0,34.6,29.67,SW,225,0.0,1.0,91,0.00,,,0.00,0.0,WUHU216DAVISVP2,2013-03-10 00:34:00,
2013-03-10 00:39:00,36.9,34.2,29.68,SSW,197,0.0,1.0,90,0.00,,,0.00,0.0,WUHU216DAVISVP2,2013-03-10 00:39:00,
2013-03-10 00:44:00,36.9,34.5,29.68,SSW,197,0.0,1.0,91,0.00,,,0.00,0.0,WUHU216DAVISVP2,2013-03-10 00:44:00,
2013-03-10 00:49:00,36.9,34.5,29.68,SSW,197,0.0,1.0,91,0.00,,,0.00,0.0,WUHU216DAVISVP2,2013-03-10 00:49:00,
2013-03-10 00:54:00,36.9,34.5,29.68,SSE,153,0.0,1.0,91,0.00,,,0.00,0.0,WUHU216DAVISVP2,2013-03-10 00:54:00,
2013-03-10 00:59:00,36.9,34.5,29.68,SSE,161,0.0,1.0,91,0.00,,,0.00,0.0,WUHU216DAVISVP2,2013-03-10 00:59:00,
2013-03-10 01:04:00,36.8,34.4,29.68,SSE,161,0.0,1.0,91,0.00,,,0.00,0.0,WUHU216DAVISVP2,2013-03-10 01:04:00,
2013-03-10 01:09:00,36.8,34.4,29.68,SSE,154,0.0,1.0,91,0.00,,,0.00,0.0,WUHU216DAVISVP2,2013-03-10 01:09:00,
2013-03-10 01:14:00,36.7,34.3,29.68,SSE,154,0.0,1.0,91,0.00,,,0.00,0.0,WUHU216DAVISVP2,2013-03-10 01:14:00,
2013-03-10 01:19:00,36.7,34.3,29.68,SSE,155,0.0,1.0,91,0.00,,,0.00,0.0,WUHU216DAVISVP2,2013-03-10 01:19:00,
2013-03-10 01:24:00,36.6,34.2,29.67,SW,219,0.0,1.0,91,0.00,,,0.00,0.0,WUHU216DAVISVP2,2013-03-10 01:24:00,
2013-03-10 01:29:00,36.5,33.8,29.67,SW,219,0.0,1.0,90,0.00,,,0.00,0.0,WUHU216DAVISVP2,2013-03-10 01:29:00,
2013-03-10 01:34:00,36.5,33.8,29.67,SW,228,0.0,1.0,90,0.00,,,0.00,0.0,WUHU216DAVISVP2,2013-03-10 01:34:00,
2013-03-10 01:39:00,36.4,33.7,29.67,SW,228,0.0,1.0,90,0.00,,,0.00,0.0,WUHU216DAVISVP2,2013-03-10 01:39:00,
2013-03-10 01:44:00,36.4,33.7,29.67,SW,228,0.0,1.0,90,0.00,,,0.00,0.0,WUHU216DAVISVP2,2013-03-10 01:44:00,
2013-03-10 01:49:00,36.3,33.6,29.67,SSE,164,0.0,6.0,90,0.00,,,0.00,0.0,WUHU216DAVISVP2,2013-03-10 01:49:00,
2013-03-10 01:54:00,36.3,33.6,29.67,SSE,164,0.0,6.0,90,0.00,,,0.00,0.0,WUHU216DAVISVP2,2013-03-10 01:54:00,
2013-03-10 01:59:00,36.3,33.6,29.67,SSE,153,0.0,6.0,90,0.00,,,0.00,0.0,WUHU216DAVISVP2,2013-03-10 01:59:00,
2013-03-10 02:04:00,36.3,33.6,29.67,SSE,152,0.0,6.0,90,0.00,,,0.00,0.0,WUHU216DAVISVP2,2013-03-10 02:04:00,
2013-03-10 02:09:00,36.2,33.5,29.67,SW,231,0.0,2.0,90,0.00,,,0.00,0.0,WUHU216DAVISVP2,2013-03-10 02:09:00,
2013-03-10 02:14:00,36.2,33.5,29.67,West,262,0.0,2.0,90,0.00,,,0.00,0.0,WUHU216DAVISVP2,2013-03-10 02:14:00,
2013-03-10 02:19:00,36.2,33.5,29.67,West,262,0.0,1.0,90,0.00,,,0.00,0.0,WUHU216DAVISVP2,2013-03-10 02:19:00,
2013-03-10 02:24:00,36.2,33.5,29.67,West,262,0.0,1.0,90,0.00,,,0.00,0.0,WUHU216DAVISVP2,2013-03-10 02:24:00,
2013-03-10 02:29:00,36.1,33.7,29.67,West,262,0.0,1.0,91,0.00,,,0.00,0.0,WUHU216DAVISVP2,2013-03-10 02:29:00,
2013-03-10 02:34:00,36.1,33.7,29.67,SSE,157,0.0,2.0,91,0.00,,,0.00,0.0,WUHU216DAVISVP2,2013-03-10 02:34:00,
2013-03-10 02:39:00,36.1,33.7,29.67,SSE,157,0.0,2.0,91,0.00,,,0.00,0.0,WUHU216DAVISVP2,2013-03-10 02:39:00,
2013-03-10 02:44:00,36.0,33.6,29.67,WSW,250,0.0,2.0,91,0.00,,,0.00,0.0,WUHU216DAVISVP2,2013-03-10 02:44:00,
2013-03-10 02:49:00,36.0,33.9,29.67,WSW,250,0.0,2.0,92,0.00,,,0.00,0.0,WUHU216DAVISVP2,2013-03-10 02:49:00,
2013-03-10 02:54:00,36.0,33.9,29.67,WSW,250,0.0,1.0,92,0.00,,,0.00,0.0,WUHU216DAVISVP2,2013-03-10 02:54:00,
2013-03-10 02:59:00,36.0,33.9,29.67,WSW,250,0.0,1.0,92,0.00,,,0.00,0.0,WUHU216DAVISVP2,2013-03-10 02:59:00,
2013-03-10 03:04:00,36.0,33.9,29.67,WSW,250,0.0,1.0,92,0.00,,,0.00,0.0,WUHU216DAVISVP2,2013-03-10 03:04:00,
2013-03-10 03:09:00,36.0,33.9,29.67,WSW,250,0.0,1.0,92,0.00,,,0.00,0.0,WUHU216DAVISVP2,2013-03-10 03:09:00,
2013-03-10 03:14:00,36.0,33.9,29.67,SE,142,0.0,6.0,92,0.00,,,0.00,0.0,WUHU216DAVISVP2,2013-03-10 03:14:00,
2013-03-10 03:19:00,36.0,33.6,29.67,SE,128,0.0,6.0,91,0.00,,,0.00,0.0,WUHU216DAVISVP2,2013-03-10 03:19:00,
2013-03-10 03:24:00,35.9,33.5,29.67,SE,128,0.0,6.0,91,0.00,,,0.00,0.0,WUHU216DAVISVP2,2013-03-10 03:24:00,
2013-03-10 03:29:00,35.9,33.5,29.67,SE,128,0.0,6.0,91,0.00,,,0.00,0.0,WUHU216DAVISVP2,2013-03-10 03:29:00,
2013-03-10 03:37:00,35.9,33.8,29.67,NW,315,0.0,6.0,92,0.00,,,0.00,0.0,WUHU216DAVISVP2,2013-03-10 03:37:00,
2013-03-10 03:42:00,35.9,33.5,29.67,NW,315,0.0,6.0,91,0.00,,,0.00,0.0,WUHU216DAVISVP2,2013-03-10 03:42:00,
2013-03-10 03:47:00,35.9,33.8,29.67,SSW,202,0.0,6.0,92,0.00,,,0.00,0.0,WUHU216DAVISVP2,2013-03-10 03:47:00,
2013-03-10 03:52:00,35.9,33.8,29.67,SSE,160,0.0,6.0,92,0.00,,,0.00,0.0,WUHU216DAVISVP2,2013-03-10 03:52:00,
2013-03-10 03:57:00,35.9,33.5,29.67,West,259,0.0,4.0,91,0.00,,,0.00,0.0,WUHU216DAVISVP2,2013-03-10 03:57:00,
2013-03-10 04:02:00,35.9,33.8,29.67,West,259,0.0,4.0,92,0.00,,,0.00,0.0,WUHU216DAVISVP2,2013-03-10 04:02:00,
2013-03-10 04:07:00,35.9,33.8,29.67,West,259,0.0,4.0,92,0.00,,,0.00,0.0,WUHU216DAVISVP2,2013-03-10 04:07:00,
2013-03-10 04:12:00,35.9,33.8,29.67,West,259,0.0,1.0,92,0.00,,,0.00,0.0,WUHU216DAVISVP2,2013-03-10 04:12:00,
2013-03-10 04:17:00,35.9,33.8,29.67,WSW,258,0.0,0.0,92,0.00,,,0.00,0.0,WUHU216DAVISVP2,2013-03-10 04:17:00,
2013-03-10 04:22:00,35.9,33.8,29.66,WSW,258,0.0,0.0,92,0.00,,,0.00,0.0,WUHU216DAVISVP2,2013-03-10 04:22:00,
2013-03-10 04:27:00,35.8,33.7,29.66,SE,133,0.0,1.0,92,0.00,,,0.00,0.0,WUHU216DAVISVP2,2013-03-10 04:27:00,
2013-03-10 04:32:00,35.8,33.7,29.66,SE,133,0.0,1.0,92,0.00,,,0.00,0.0,WUHU216DAVISVP2,2013-03-10 04:32:00,
2013-03-10 04:37:00,35.8,33.7,29.66,East,84,0.0,2.0,92,0.00,,,0.00,0.0,WUHU216DAVISVP2,2013-03-10 04:37:00,
2013-03-10 04:42:00,35.7,33.6,29.66,East,84,0.0,2.0,92,0.00,,,0.00,0.0,WUHU216DAVISVP2,2013-03-10 04:42:00,
2013-03-10 04:47:00,35.7,33.6,29.66,East,84,0.0,2.0,92,0.00,,,0.00,0.0,WUHU216DAVISVP2,2013-03-10 04:47:00,
2013-03-10 04:52:00,35.7,33.6,29.66,East,84,0.0,2.0,92,0.00,,,0.00,0.0,WUHU216DAVISVP2,2013-03-10 04:52:00,
2013-03-10 04:57:00,35.7,33.6,29.67,SSW,205,1.0,2.0,92,0.00,,,0.00,0.0,WUHU216DAVISVP2,2013-03-10 04:57:00,
2013-03-10 05:00:00,35.7,33.6,29.67,SSW,205,0.0,2.0,92,0.00,,,0.00,0.0,WUHU216DAVISVP2,2013-03-10 05:00:00,
2013-03-10 05:05:00,35.7,33.6,29.67,SSW,205,0.0,2.0,92,0.00,,,0.00,0.0,WUHU216DAVISVP2,2013-03-10 05:05:00,
2013-03-10 05:10:00,35.7,33.6,29.67,South,187,0.0,2.0,92,0.00,,,0.00,0.0,WUHU216DAVISVP2,2013-03-10 05:10:00,
2013-03-10 05:15:00,35.7,33.6,29.67,WNW,301,0.0,2.0,92,0.00,,,0.00,0.0,WUHU216DAVISVP2,2013-03-10 05:15:00,
2013-03-10 05:20:00,35.7,33.6,29.66,SW,231,0.0,2.0,92,0.00,,,0.00,0.0,WUHU216DAVISVP2,2013-03-10 05:20:00,
2013-03-10 05:25:00,35.7,33.6,29.67,SSW,205,0.0,2.0,92,0.00,,,0.00,0.0,WUHU216DAVISVP2,2013-03-10 05:25:00,
2013-03-10 05:30:00,35.7,33.6,29.67,WSW,251,0.0,2.0,92,0.00,,,0.00,0.0,WUHU216DAVISVP2,2013-03-10 05:30:00,
2013-03-10 05:35:00,35.7,33.6,29.67,SSE,162,0.0,2.0,92,0.00,,,0.00,0.0,WUHU216DAVISVP2,2013-03-10 05:35:00,
2013-03-10 05:40:00,35.7,33.6,29.67,SSE,162,0.0,2.0,92,0.00,,,0.00,0.0,WUHU216DAVISVP2,2013-03-10 05:40:00,
2013-03-10 05:45:00,35.7,33.6,29.67,SSE,162,0.0,1.0,92,0.00,,,0.00,0.0,WUHU216DAVISVP2,2013-03-10 05:45:00,
2013-03-10 05:50:00,35.7,33.6,29.67,SSE,162,0.0,1.0,92,0.00,,,0.00,0.0,WUHU216DAVISVP2,2013-03-10 05:50:00,
2013-03-10 05:55:00,35.6,33.5,29.67,ENE,57,0.0,1.0,92,0.00,,,0.00,0.0,WUHU216DAVISVP2,2013-03-10 05:55:00,
2013-03-10 06:00:00,35.6,33.5,29.67,NNW,334,0.0,1.0,92,0.00,,,0.00,0.0,WUHU216DAVISVP2,2013-03-10 06:00:00,
2013-03-10 06:05:00,35.6,33.5,29.67,ENE,61,0.0,1.0,92,0.00,,,0.00,0.0,WUHU216DAVISVP2,2013-03-10 06:05:00,
2013-03-10 06:10:00,35.6,33.5,29.67,ESE,113,0.0,1.0,92,0.00,,,0.00,0.0,WUHU216DAVISVP2,2013-03-10 06:10:00,
2013-03-10 06:15:00,35.5,33.4,29.67,ESE,117,0.0,1.0,92,0.00,,,0.00,0.0,WUHU216DAVISVP2,2013-03-10 06:15:00,
2013-03-10 06:20:00,35.5,33.4,29.67,ESE,116,1.0,1.0,92,0.00,,,0.00,0.0,WUHU216DAVISVP2,2013-03-10 06:20:00,
2013-03-10 06:25:00,35.5,33.4,29.68,South,171,0.0,1.0,92,0.00,,,0.00,0.0,WUHU216DAVISVP2,2013-03-10 06:25:00,
2013-03-10 06:30:00,35.5,33.4,29.67,South,173,0.0,1.0,92,0.00,,,0.00,0.0,WUHU216DAVISVP2,2013-03-10 06:30:00,
2013-03-10 06:35:00,35.5,33.4,29.67,West,269,0.0,1.0,92,0.00,,,0.00,0.0,WUHU216DAVISVP2,2013-03-10 06:35:00,
2013-03-10 06:40:00,35.4,33.3,29.67,West,269,0.0,1.0,92,0.00,,,0.00,0.0,WUHU216DAVISVP2,2013-03-10 06:40:00,
2013-03-10 06:45:00,35.5,33.4,29.67,SSE,167,0.0,2.0,92,0.00,,,0.00,5.0,WUHU216DAVISVP2,2013-03-10 06:45:00,
2013-03-10 06:50:00,35.4,33.3,29.67,SSW,206,0.0,2.0,92,0.00,,,0.00,9.0,WUHU216DAVISVP2,2013-03-10 06:50:00,
2013-03-10 06:55:00,35.5,33.4,29.68,West,271,0.0,2.0,92,0.00,,,0.00,11.0,WUHU216DAVISVP2,2013-03-10 06:55:00,
2013-03-10 07:00:00,35.4,33.3,29.68,WNW,294,0.0,2.0,92,0.00,,,0.00,12.0,WUHU216DAVISVP2,2013-03-10 07:00:00,
2013-03-10 07:05:00,35.5,33.4,29.68,WNW,294,0.0,2.0,92,0.00,,,0.00,14.0,WUHU216DAVISVP2,2013-03-10 07:05:00,
2013-03-10 07:10:00,35.5,33.4,29.67,NW,313,0.0,2.0,92,0.00,,,0.00,14.0,WUHU216DAVISVP2,2013-03-10 07:10:00,
2013-03-10 07:15:00,35.5,33.4,29.68,WNW,287,0.0,1.0,92,0.00,,,0.00,18.0,WUHU216DAVISVP2,2013-03-10 07:15:00,
2013-03-10 07:20:00,35.5,33.4,29.68,WNW,287,0.0,1.0,92,0.00,,,0.00,19.0,WUHU216DAVISVP2,2013-03-10 07:20:00,
2013-03-10 07:25:00,35.5,33.1,29.67,SE,142,0.0,4.0,91,0.00,,,0.00,25.0,WUHU216DAVISVP2,2013-03-10 07:25:00,
2013-03-10 07:30:00,35.6,33.2,29.68,NNW,331,0.0,4.0,91,0.00,,,0.00,23.0,WUHU216DAVISVP2,2013-03-10 07:30:00,
2013-03-10 07:35:00,35.7,33.3,29.68,SE,131,0.0,4.0,91,0.00,,,0.00,21.0,WUHU216DAVISVP2,2013-03-10 07:35:00,
2013-03-10 07:40:00,35.7,33.3,29.68,SW,214,0.0,1.0,91,0.00,,,0.00,23.0,WUHU216DAVISVP2,2013-03-10 07:40:00,
2013-03-10 07:45:00,35.8,33.4,29.68,SW,218,0.0,1.0,91,0.00,,,0.00,26.0,WUHU216DAVISVP2,2013-03-10 07:45:00,
2013-03-10 07:50:00,35.8,33.4,29.68,WNW,293,0.0,2.0,91,0.00,,,0.00,28.0,WUHU216DAVISVP2,2013-03-10 07:50:00,
2013-03-10 07:55:00,35.9,33.5,29.68,SSE,150,0.0,2.0,91,0.00,,,0.00,28.0,WUHU216DAVISVP2,2013-03-10 07:55:00,
2013-03-10 08:00:00,35.9,33.5,29.68,SW,236,0.0,2.0,91,0.00,,,0.00,28.0,WUHU216DAVISVP2,2013-03-10 08:00:00,
2013-03-10 08:05:00,36.0,33.6,29.68,WSW,237,0.0,1.0,91,0.00,,,0.00,35.0,WUHU216DAVISVP2,2013-03-10 08:05:00,
2013-03-10 08:10:00,36.1,33.7,29.68,SSW,204,0.0,2.0,91,0.00,,,0.00,39.0,WUHU216DAVISVP2,2013-03-10 08:10:00,
2013-03-10 08:15:00,36.2,33.8,29.69,South,178,0.0,2.0,91,0.00,,,0.00,39.0,WUHU216DAVISVP2,2013-03-10 08:15:00,
2013-03-10 08:20:00,36.3,33.9,29.69,WNW,300,0.0,2.0,91,0.00,,,0.00,35.0,WUHU216DAVISVP2,2013-03-10 08:20:00,
2013-03-10 08:25:00,36.3,33.6,29.69,WNW,303,0.0,2.0,90,0.00,,,0.00,26.0,WUHU216DAVISVP2,2013-03-10 08:25:00,
2013-03-10 08:30:00,36.3,33.6,29.69,NW,325,0.0,2.0,90,0.00,,,0.00,37.0,WUHU216DAVISVP2,2013-03-10 08:30:00,
2013-03-10 08:35:00,36.3,33.6,29.69,NE,36,0.0,2.0,90,0.00,,,0.00,37.0,WUHU216DAVISVP2,2013-03-10 08:35:00,
2013-03-10 08:40:00,36.3,33.6,29.69,NE,38,0.0,2.0,90,0.00,,,0.00,40.0,WUHU216DAVISVP2,2013-03-10 08:40:00,
2013-03-10 08:45:00,36.4,33.4,29.69,ENE,76,0.0,4.0,89,0.00,,,0.00,40.0,WUHU216DAVISVP2,2013-03-10 08:45:00,
2013-03-10 08:50:00,36.4,33.7,29.69,SSE,149,0.0,4.0,90,0.00,,,0.00,53.0,WUHU216DAVISVP2,2013-03-10 08:50:00,
2013-03-10 08:55:00,36.4,33.4,29.69,East,92,0.0,5.0,89,0.00,,,0.00,46.0,WUHU216DAVISVP2,2013-03-10 08:55:00,
2013-03-10 09:00:00,36.6,33.9,29.69,NE,40,0.0,5.0,90,0.00,,,0.00,76.0,WUHU216DAVISVP2,2013-03-10 09:00:00,
2013-03-10 09:05:00,36.6,33.6,29.69,WNW,297,0.0,6.0,89,0.00,,,0.00,63.0,WUHU216DAVISVP2,2013-03-10 09:05:00,
2013-03-10 09:10:00,36.7,33.7,29.69,NW,307,0.0,6.0,89,0.00,,,0.00,109.0,WUHU216DAVISVP2,2013-03-10 09:10:00,
2013-03-10 09:15:00,36.8,33.8,29.69,WNW,291,0.0,6.0,89,0.00,,,0.00,148.0,WUHU216DAVISVP2,2013-03-10 09:15:00,
2013-03-10 09:20:00,37.1,34.1,29.69,WNW,292,0.0,6.0,89,0.00,,,0.00,109.0,WUHU216DAVISVP2,2013-03-10 09:20:00,
2013-03-10 09:25:00,37.3,34.0,29.69,SSW,195,0.0,5.0,88,0.00,,,0.00,102.0,WUHU216DAVISVP2,2013-03-10 09:25:00,
2013-03-10 09:30:00,37.4,33.9,29.69,NE,47,0.0,5.0,87,0.00,,,0.00,93.0,WUHU216DAVISVP2,2013-03-10 09:30:00,
2013-03-10 09:35:00,37.5,34.0,29.69,ENE,73,0.0,5.0,87,0.00,,,0.00,58.0,WUHU216DAVISVP2,2013-03-10 09:35:00,
2013-03-10 09:40:00,37.5,34.0,29.69,SSE,166,0.0,5.0,87,0.00,,,0.00,42.0,WUHU216DAVISVP2,2013-03-10 09:40:00,
2013-03-10 09:45:00,37.4,33.9,29.69,NW,311,0.0,2.0,87,0.00,,,0.00,58.0,WUHU216DAVISVP2,2013-03-10 09:45:00,
2013-03-10 09:50:00,37.3,33.8,29.69,NW,310,0.0,2.0,87,0.00,,,0.00,54.0,WUHU216DAVISVP2,2013-03-10 09:50:00,
2013-03-10 09:55:00,37.2,33.7,29.69,NE,45,1.0,6.0,87,0.00,,,0.00,76.0,WUHU216DAVISVP2,2013-03-10 09:55:00,
2013-03-10 10:00:00,37.2,33.7,29.69,NNW,330,0.0,6.0,87,0.00,,,0.00,88.0,WUHU216DAVISVP2,2013-03-10 10:00:00,
2013-03-10 10:01:00,37.2,33.7,29.69,WNW,300,0.0,6.0,87,0.00,,,0.00,84.0,WUHU216DAVISVP2,2013-03-10 10:01:00,
2013-03-10 10:05:00,37.2,33.7,29.69,WNW,300,0.0,6.0,87,0.00,,,0.00,84.0,WUHU216DAVISVP2,2013-03-10 10:05:00,
2013-03-10 10:10:00,37.2,33.7,29.69,WNW,300,0.0,6.0,87,0.00,,,0.00,84.0,WUHU216DAVISVP2,2013-03-10 10:10:00,
2013-03-10 10:15:00,37.4,33.9,29.69,North,360,0.0,6.0,87,0.00,,,0.00,69.0,WUHU216DAVISVP2,2013-03-10 10:15:00,
2013-03-10 10:20:00,37.5,34.0,29.69,ESE,104,0.0,6.0,87,0.00,,,0.00,83.0,WUHU216DAVISVP2,2013-03-10 10:20:00,
2013-03-10 10:25:00,37.5,34.0,29.69,North,355,0.0,4.0,87,0.00,,,0.00,93.0,WUHU216DAVISVP2,2013-03-10 10:25:00,
2013-03-10 10:30:00,37.7,34.2,29.69,NW,313,0.0,4.0,87,0.00,,,0.00,116.0,WUHU216DAVISVP2,2013-03-10 10:30:00,
2013-03-10 10:35:00,37.8,34.2,29.69,West,273,1.0,4.0,87,0.00,,,0.00,163.0,WUHU216DAVISVP2,2013-03-10 10:35:00,
2013-03-10 10:40:00,38.2,34.6,29.70,WNW,298,0.0,2.0,87,0.00,,,0.00,142.0,WUHU216DAVISVP2,2013-03-10 10:40:00,
2013-03-10 10:45:00,38.4,34.3,29.70,WNW,300,0.0,2.0,85,0.00,,,0.00,132.0,WUHU216DAVISVP2,2013-03-10 10:45:00,
2013-03-10 10:50:00,38.5,34.4,29.69,WNW,292,0.0,4.0,85,0.00,,,0.00,102.0,WUHU216DAVISVP2,2013-03-10 10:50:00,
2013-03-10 10:55:00,38.5,34.4,29.70,WNW,293,4.0,6.0,85,0.00,,,0.00,134.0,WUHU216DAVISVP2,2013-03-10 10:55:00,
2013-03-10 11:00:00,38.5,34.4,29.70,West,273,1.0,6.0,85,0.00,,,0.00,98.0,WUHU216DAVISVP2,2013-03-10 11:00:00,
2013-03-10 11:05:00,38.6,34.2,29.70,West,278,0.0,6.0,84,0.00,,,0.00,139.0,WUHU216DAVISVP2,2013-03-10 11:05:00,
2013-03-10 11:10:00,38.7,34.3,29.70,WNW,295,1.0,6.0,84,0.00,,,0.00,109.0,WUHU216DAVISVP2,2013-03-10 11:10:00,
2013-03-10 11:15:00,38.7,34.3,29.70,NW,312,0.0,6.0,84,0.00,,,0.00,116.0,WUHU216DAVISVP2,2013-03-10 11:15:00,
2013-03-10 11:20:00,38.6,33.9,29.70,East,97,0.0,6.0,83,0.00,,,0.00,178.0,WUHU216DAVISVP2,2013-03-10 11:20:00,
2013-03-10 11:25:00,38.7,34.3,29.70,North,355,0.0,6.0,84,0.00,,,0.00,255.0,WUHU216DAVISVP2,2013-03-10 11:25:00,
2013-03-10 11:30:00,39.0,34.6,29.70,ENE,59,1.0,4.0,84,0.00,,,0.00,139.0,WUHU216DAVISVP2,2013-03-10 11:30:00,
2013-03-10 11:35:00,39.0,34.0,29.70,SE,145,0.0,5.0,82,0.00,,,0.00,162.0,WUHU216DAVISVP2,2013-03-10 11:35:00,
2013-03-10 11:40:00,38.8,33.8,29.70,West,281,5.0,7.0,82,0.00,,,0.00,83.0,WUHU216DAVISVP2,2013-03-10 11:40:00,
2013-03-10 11:45:00,38.7,34.0,29.70,NE,45,1.0,7.0,83,0.00,,,0.00,141.0,WUHU216DAVISVP2,2013-03-10 11:45:00,
2013-03-10 11:50:00,38.7,34.0,29.70,NNW,332,0.0,7.0,83,0.00,,,0.00,118.0,WUHU216DAVISVP2,2013-03-10 11:50:00,
2013-03-10 11:55:00,38.7,34.0,29.70,NW,311,4.0,7.0,83,0.00,,,0.00,109.0,WUHU216DAVISVP2,2013-03-10 11:55:00,
2013-03-10 12:00:00,38.7,34.0,29.70,NNE,18,0.0,5.0,83,0.00,,,0.00,111.0,WUHU216DAVISVP2,2013-03-10 12:00:00,
2013-03-10 12:05:00,38.8,33.8,29.70,WNW,286,0.0,5.0,82,0.00,,,0.00,134.0,WUHU216DAVISVP2,2013-03-10 12:05:00,
2013-03-10 12:10:00,38.9,34.2,29.70,West,274,0.0,7.0,83,0.00,,,0.00,81.0,WUHU216DAVISVP2,2013-03-10 12:10:00,
2013-03-10 12:15:00,38.7,33.7,29.70,WNW,282,4.0,7.0,82,0.00,,,0.00,98.0,WUHU216DAVISVP2,2013-03-10 12:15:00,
2013-03-10 12:20:00,38.7,34.0,29.70,NW,316,0.0,7.0,83,0.00,,,0.00,86.0,WUHU216DAVISVP2,2013-03-10 12:20:00,
2013-03-10 12:25:00,38.7,34.3,29.70,East,96,0.0,7.0,84,0.00,,,0.00,107.0,WUHU216DAVISVP2,2013-03-10 12:25:00,
2013-03-10 12:30:00,38.6,33.6,29.70,NE,46,0.0,5.0,82,0.00,,,0.00,86.0,WUHU216DAVISVP2,2013-03-10 12:30:00,
2013-03-10 12:35:00,38.5,33.5,29.70,NE,45,1.0,5.0,82,0.00,,,0.00,63.0,WUHU216DAVISVP2,2013-03-10 12:35:00,
2013-03-10 12:40:00,38.4,33.4,29.70,WNW,300,0.0,5.0,82,0.00,,,0.00,111.0,WUHU216DAVISVP2,2013-03-10 12:40:00,
2013-03-10 12:46:00,38.4,33.7,29.70,West,273,1.0,5.0,83,0.00,,,0.00,111.0,WUHU216DAVISVP2,2013-03-10 12:46:00,
2013-03-10 12:51:00,38.4,33.4,29.70,ESE,109,0.0,5.0,82,0.00,,,0.00,148.0,WUHU216DAVISVP2,2013-03-10 12:51:00,
2013-03-10 12:56:00,38.4,33.4,29.70,WNW,298,3.0,6.0,82,0.00,,,0.00,128.0,WUHU216DAVISVP2,2013-03-10 12:56:00,
2013-03-10 13:01:00,38.4,33.7,29.70,ENE,61,0.0,6.0,83,0.00,,,0.00,72.0,WUHU216DAVISVP2,2013-03-10 13:01:00,
2013-03-10 13:06:00,38.5,33.5,29.70,NNE,19,0.0,6.0,82,0.00,,,0.00,105.0,WUHU216DAVISVP2,2013-03-10 13:06:00,
2013-03-10 13:11:00,38.5,33.5,29.70,West,270,1.0,6.0,82,0.00,,,0.00,70.0,WUHU216DAVISVP2,2013-03-10 13:11:00,
2013-03-10 13:16:00,38.4,33.4,29.70,WNW,292,0.0,5.0,82,0.00,,,0.00,69.0,WUHU216DAVISVP2,2013-03-10 13:16:00,
2013-03-10 13:21:00,38.2,32.9,29.70,West,275,0.0,5.0,81,0.00,,,0.00,95.0,WUHU216DAVISVP2,2013-03-10 13:21:00,
2013-03-10 13:26:00,38.2,33.2,29.70,NW,323,0.0,5.0,82,0.00,,,0.00,171.0,WUHU216DAVISVP2,2013-03-10 13:26:00,
2013-03-10 13:31:00,38.4,33.7,29.70,NNW,327,0.0,5.0,83,0.00,,,0.00,193.0,WUHU216DAVISVP2,2013-03-10 13:31:00,
2013-03-10 13:36:00,38.6,33.3,29.70,NNW,328,0.0,5.0,81,0.00,,,0.00,100.0,WUHU216DAVISVP2,2013-03-10 13:36:00,
2013-03-10 13:41:00,38.6,33.3,29.70,SW,225,0.0,5.0,81,0.00,,,0.00,84.0,WUHU216DAVISVP2,2013-03-10 13:41:00,
2013-03-10 13:46:00,38.4,33.1,29.70,North,355,0.0,5.0,81,0.00,,,0.00,105.0,WUHU216DAVISVP2,2013-03-10 13:46:00,
2013-03-10 13:51:00,38.3,33.0,29.70,WNW,290,5.0,5.0,81,0.00,,,0.00,121.0,WUHU216DAVISVP2,2013-03-10 13:51:00,
2013-03-10 13:56:00,38.2,32.9,29.70,WNW,298,2.0,6.0,81,0.00,,,0.00,104.0,WUHU216DAVISVP2,2013-03-10 13:56:00,
2013-03-10 14:01:00,38.1,33.4,29.70,South,183,0.0,6.0,83,0.00,,,0.00,37.0,WUHU216DAVISVP2,2013-03-10 14:01:00,
2013-03-10 14:06:00,37.9,33.2,29.71,WNW,283,2.0,6.0,83,0.00,,,0.00,51.0,WUHU216DAVISVP2,2013-03-10 14:06:00,
2013-03-10 14:11:00,37.5,32.5,29.71,WNW,284,0.0,9.0,82,0.00,,,0.00,26.0,WUHU216DAVISVP2,2013-03-10 14:11:00,
2013-03-10 14:16:00,37.3,32.6,29.71,SSE,152,0.0,9.0,83,0.00,,,0.00,58.0,WUHU216DAVISVP2,2013-03-10 14:16:00,
2013-03-10 14:21:00,37.2,32.5,29.71,NW,317,1.0,9.0,83,0.00,,,0.00,63.0,WUHU216DAVISVP2,2013-03-10 14:21:00,
2013-03-10 14:26:00,37.1,32.4,29.71,NNW,338,0.0,9.0,83,0.00,,,0.00,81.0,WUHU216DAVISVP2,2013-03-10 14:26:00,
2013-03-10 14:31:00,37.0,32.3,29.72,NW,314,0.0,6.0,83,0.00,,,0.00,72.0,WUHU216DAVISVP2,2013-03-10 14:31:00,
2013-03-10 14:36:00,37.0,32.6,29.72,WNW,292,1.0,6.0,84,0.00,,,0.00,74.0,WUHU216DAVISVP2,2013-03-10 14:36:00,
2013-03-10 14:41:00,37.0,32.3,29.71,ENE,67,1.0,5.0,83,0.00,,,0.00,72.0,WUHU216DAVISVP2,2013-03-10 14:41:00,
2013-03-10 14:46:00,36.9,31.9,29.71,NE,45,0.0,5.0,82,0.00,,,0.00,23.0,WUHU216DAVISVP2,2013-03-10 14:46:00,
2013-03-10 14:51:00,36.8,32.1,29.72,NW,311,0.0,5.0,83,0.00,,,0.00,18.0,WUHU216DAVISVP2,2013-03-10 14:51:00,
2013-03-10 14:56:00,36.6,32.2,29.72,WNW,300,0.0,5.0,84,0.00,,,0.00,18.0,WUHU216DAVISVP2,2013-03-10 14:56:00,
2013-03-10 15:01:00,36.3,32.2,29.72,North,349,0.0,5.0,85,0.00,,,0.00,21.0,WUHU216DAVISVP2,2013-03-10 15:01:00,
2013-03-10 15:06:00,36.2,32.4,29.71,NNE,28,0.0,5.0,86,0.00,,,0.00,40.0,WUHU216DAVISVP2,2013-03-10 15:06:00,
2013-03-10 15:11:00,36.0,31.6,29.72,NNE,22,0.0,6.0,84,0.00,,,0.00,28.0,WUHU216DAVISVP2,2013-03-10 15:11:00,
2013-03-10 15:16:00,35.9,31.8,29.72,NNW,348,0.0,6.0,85,0.00,,,0.00,16.0,WUHU216DAVISVP2,2013-03-10 15:16:00,
2013-03-10 15:21:00,35.8,31.7,29.72,NNW,329,0.0,6.0,85,0.00,,,0.00,18.0,WUHU216DAVISVP2,2013-03-10 15:21:00,
2013-03-10 15:26:00,35.8,31.7,29.72,NNE,24,0.0,6.0,85,0.00,,,0.00,12.0,WUHU216DAVISVP2,2013-03-10 15:26:00,
2013-03-10 15:31:00,35.7,31.6,29.72,NW,324,0.0,6.0,85,0.00,,,0.00,12.0,WUHU216DAVISVP2,2013-03-10 15:31:00,
2013-03-10 15:36:00,35.6,31.5,29.72,WNW,297,0.0,6.0,85,0.00,,,0.00,18.0,WUHU216DAVISVP2,2013-03-10 15:36:00,
2013-03-10 15:41:00,35.5,31.4,29.72,WNW,299,0.0,5.0,85,0.00,,,0.00,11.0,WUHU216DAVISVP2,2013-03-10 15:41:00,
2013-03-10 15:46:00,35.5,31.4,29.72,NW,307,0.0,5.0,85,0.00,,,0.00,11.0,WUHU216DAVISVP2,2013-03-10 15:46:00,
2013-03-10 15:51:00,35.4,31.3,29.71,ENE,71,0.0,5.0,85,0.00,,,0.00,18.0,WUHU216DAVISVP2,2013-03-10 15:51:00,
2013-03-10 15:56:00,35.3,30.9,29.72,WNW,302,3.0,5.0,84,0.00,,,0.00,16.0,WUHU216DAVISVP2,2013-03-10 15:56:00,
2013-03-10 16:01:00,35.3,30.9,29.72,WNW,284,0.0,5.0,84,0.00,,,0.00,19.0,WUHU216DAVISVP2,2013-03-10 16:01:00,
2013-03-10 16:06:00,35.3,30.6,29.72,NNW,329,0.0,5.0,83,0.00,,,0.00,11.0,WUHU216DAVISVP2,2013-03-10 16:06:00,
2013-03-10 16:11:00,35.3,30.9,29.72,NE,35,1.0,4.0,84,0.00,,,0.00,11.0,WUHU216DAVISVP2,2013-03-10 16:11:00,
2013-03-10 16:16:00,35.3,30.9,29.72,WNW,293,2.0,6.0,84,0.00,,,0.00,11.0,WUHU216DAVISVP2,2013-03-10 16:16:00,
2013-03-10 16:21:00,35.2,30.9,29.72,West,281,0.0,6.0,84,0.00,,,0.00,12.0,WUHU216DAVISVP2,2013-03-10 16:21:00,
2013-03-10 16:26:00,35.1,30.8,29.72,NW,317,2.0,6.0,84,0.00,,,0.00,14.0,WUHU216DAVISVP2,2013-03-10 16:26:00,
2013-03-10 16:31:00,35.1,30.8,29.72,WNW,284,0.0,6.0,84,0.00,,,0.00,16.0,WUHU216DAVISVP2,2013-03-10 16:31:00,
2013-03-10 16:36:00,35.1,30.8,29.72,WNW,290,0.0,6.0,84,0.00,,,0.00,14.0,WUHU216DAVISVP2,2013-03-10 16:36:00,
2013-03-10 16:41:00,35.1,30.8,29.73,SE,124,3.0,5.0,84,0.00,,,0.00,14.0,WUHU216DAVISVP2,2013-03-10 16:41:00,
2013-03-10 16:46:00,35.0,30.4,29.72,South,186,0.0,5.0,83,0.00,,,0.00,16.0,WUHU216DAVISVP2,2013-03-10 16:46:00,
2013-03-10 16:51:00,35.0,30.4,29.73,WSW,252,0.0,7.0,83,0.00,,,0.00,16.0,WUHU216DAVISVP2,2013-03-10 16:51:00,
2013-03-10 16:56:00,35.0,30.3,29.72,ESE,103,0.0,7.0,83,0.00,,,0.00,12.0,WUHU216DAVISVP2,2013-03-10 16:56:00,
2013-03-10 17:01:00,35.0,30.3,29.73,NNE,20,0.0,7.0,83,0.00,,,0.00,7.0,WUHU216DAVISVP2,2013-03-10 17:01:00,
2013-03-10 17:06:00,35.0,30.6,29.72,WNW,287,0.0,7.0,84,0.00,,,0.00,12.0,WUHU216DAVISVP2,2013-03-10 17:06:00,
2013-03-10 17:11:00,35.0,30.3,29.72,West,277,0.0,5.0,83,0.00,,,0.00,9.0,WUHU216DAVISVP2,2013-03-10 17:11:00,
2013-03-10 17:16:00,35.0,30.6,29.72,East,98,1.0,4.0,84,0.00,,,0.00,9.0,WUHU216DAVISVP2,2013-03-10 17:16:00,
2013-03-10 17:21:00,35.0,30.3,29.73,ESE,111,0.0,5.0,83,0.00,,,0.00,5.0,WUHU216DAVISVP2,2013-03-10 17:21:00,
2013-03-10 17:26:00,34.9,30.5,29.73,WNW,300,0.0,5.0,84,0.00,,,0.00,0.0,WUHU216DAVISVP2,2013-03-10 17:26:00,
2013-03-10 17:31:00,34.9,30.5,29.73,NNE,33,0.0,5.0,84,0.00,,,0.00,0.0,WUHU216DAVISVP2,2013-03-10 17:31:00,
2013-03-10 17:36:00,34.9,30.5,29.73,NNE,19,0.0,4.0,84,0.00,,,0.00,0.0,WUHU216DAVISVP2,2013-03-10 17:36:00,
2013-03-10 17:41:00,34.8,30.2,29.73,West,270,0.0,2.0,83,0.00,,,0.00,0.0,WUHU216DAVISVP2,2013-03-10 17:41:00,
2013-03-10 17:46:00,34.7,30.1,29.73,North,5,0.0,2.0,83,0.00,,,0.00,0.0,WUHU216DAVISVP2,2013-03-10 17:46:00,
2013-03-10 17:51:00,34.6,30.0,29.73,WNW,298,0.0,2.0,83,0.00,,,0.00,0.0,WUHU216DAVISVP2,2013-03-10 17:51:00,
2013-03-10 17:56:00,34.6,29.7,29.73,NW,318,0.0,4.0,82,0.00,,,0.00,0.0,WUHU216DAVISVP2,2013-03-10 17:56:00,
2013-03-10 18:01:00,34.5,29.6,29.73,ESE,114,1.0,4.0,82,0.00,,,0.00,0.0,WUHU216DAVISVP2,2013-03-10 18:01:00,
2013-03-10 18:06:00,34.4,29.5,29.73,NW,307,0.0,5.0,82,0.00,,,0.00,0.0,WUHU216DAVISVP2,2013-03-10 18:06:00,
2013-03-10 18:11:00,34.4,29.8,29.73,WNW,291,0.0,5.0,83,0.00,,,0.00,0.0,WUHU216DAVISVP2,2013-03-10 18:11:00,
2013-03-10 18:16:00,34.4,29.8,29.73,WNW,297,0.0,5.0,83,0.00,,,0.00,0.0,WUHU216DAVISVP2,2013-03-10 18:16:00,
2013-03-10 18:21:00,34.4,29.8,29.73,NNW,336,0.0,5.0,83,0.00,,,0.00,0.0,WUHU216DAVISVP2,2013-03-10 18:21:00,
2013-03-10 18:26:00,34.3,29.7,29.73,SE,134,0.0,2.0,83,0.00,,,0.00,0.0,WUHU216DAVISVP2,2013-03-10 18:26:00,
2013-03-10 18:31:00,34.3,30.0,29.73,WNW,285,0.0,2.0,84,0.00,,,0.00,0.0,WUHU216DAVISVP2,2013-03-10 18:31:00,
2013-03-10 18:36:00,34.3,29.7,29.73,NW,326,0.0,6.0,83,0.00,,,0.00,0.0,WUHU216DAVISVP2,2013-03-10 18:36:00,
2013-03-10 18:41:00,34.2,29.6,29.73,NNW,329,0.0,6.0,83,0.00,,,0.00,0.0,WUHU216DAVISVP2,2013-03-10 18:41:00,
2013-03-10 18:46:00,34.2,29.6,29.73,East,91,0.0,6.0,83,0.00,,,0.00,0.0,WUHU216DAVISVP2,2013-03-10 18:46:00,
2013-03-10 18:51:00,34.1,29.5,29.73,NW,306,2.0,6.0,83,0.00,,,0.00,0.0,WUHU216DAVISVP2,2013-03-10 18:51:00,
2013-03-10 18:56:00,34.1,29.2,29.73,NE,53,0.0,4.0,82,0.00,,,0.00,0.0,WUHU216DAVISVP2,2013-03-10 18:56:00,
2013-03-10 19:01:00,34.1,29.2,29.74,NW,305,0.0,4.0,82,0.00,,,0.00,0.0,WUHU216DAVISVP2,2013-03-10 19:01:00,
2013-03-10 19:06:00,34.1,29.5,29.74,ESE,107,0.0,4.0,83,0.00,,,0.00,0.0,WUHU216DAVISVP2,2013-03-10 19:06:00,
2013-03-10 19:11:00,34.0,29.4,29.74,ESE,115,1.0,5.0,83,0.00,,,0.00,0.0,WUHU216DAVISVP2,2013-03-10 19:11:00,
2013-03-10 19:16:00,33.9,29.3,29.74,East,79,0.0,5.0,83,0.00,,,0.00,0.0,WUHU216DAVISVP2,2013-03-10 19:16:00,
2013-03-10 19:21:00,33.7,29.1,29.74,ESE,117,0.0,5.0,83,0.00,,,0.00,0.0,WUHU216DAVISVP2,2013-03-10 19:21:00,
2013-03-10 19:26:00,33.6,29.0,29.74,SE,134,0.0,2.0,83,0.00,,,0.00,0.0,WUHU216DAVISVP2,2013-03-10 19:26:00,
2013-03-10 19:31:00,33.5,29.2,29.74,ENE,65,1.0,4.0,84,0.00,,,0.00,0.0,WUHU216DAVISVP2,2013-03-10 19:31:00,
2013-03-10 19:36:00,33.4,28.8,29.74,WSW,252,0.0,4.0,83,0.00,,,0.00,0.0,WUHU216DAVISVP2,2013-03-10 19:36:00,
2013-03-10 19:42:00,33.4,28.8,29.74,East,97,1.0,4.0,83,0.00,,,0.00,0.0,WUHU216DAVISVP2,2013-03-10 19:42:00,
2013-03-10 19:47:00,33.4,28.8,29.74,WNW,300,0.0,4.0,83,0.00,,,0.00,0.0,WUHU216DAVISVP2,2013-03-10 19:47:00,
2013-03-10 19:52:00,33.3,28.4,29.74,South,178,0.0,4.0,82,0.00,,,0.00,0.0,WUHU216DAVISVP2,2013-03-10 19:52:00,
2013-03-10 19:57:00,33.2,28.3,29.74,West,263,0.0,4.0,82,0.00,,,0.00,0.0,WUHU216DAVISVP2,2013-03-10 19:57:00,
2013-03-10 20:02:00,33.1,28.2,29.74,ENE,71,0.0,4.0,82,0.00,,,0.00,0.0,WUHU216DAVISVP2,2013-03-10 20:02:00,
2013-03-10 20:07:00,33.0,28.1,29.74,South,191,0.0,7.0,82,0.00,,,0.00,0.0,WUHU216DAVISVP2,2013-03-10 20:07:00,
2013-03-10 20:12:00,33.0,28.1,29.74,NNE,25,0.0,7.0,82,0.00,,,0.00,0.0,WUHU216DAVISVP2,2013-03-10 20:12:00,
2013-03-10 20:17:00,33.0,28.1,29.74,WNW,289,0.0,7.0,82,0.00,,,0.00,0.0,WUHU216DAVISVP2,2013-03-10 20:17:00,
2013-03-10 20:22:00,33.0,28.1,29.74,SSW,202,0.0,7.0,82,0.00,,,0.00,0.0,WUHU216DAVISVP2,2013-03-10 20:22:00,
2013-03-10 20:27:00,33.0,28.1,29.74,NE,44,0.0,5.0,82,0.00,,,0.00,0.0,WUHU216DAVISVP2,2013-03-10 20:27:00,
2013-03-10 20:32:00,33.0,28.1,29.74,SE,126,0.0,5.0,82,0.00,,,0.00,0.0,WUHU216DAVISVP2,2013-03-10 20:32:00,
2013-03-10 20:37:00,33.0,28.1,29.74,ESE,121,0.0,5.0,82,0.00,,,0.00,0.0,WUHU216DAVISVP2,2013-03-10 20:37:00,
2013-03-10 20:42:00,33.0,27.8,29.74,WNW,301,0.0,5.0,81,0.00,,,0.00,0.0,WUHU216DAVISVP2,2013-03-10 20:42:00,
2013-03-10 20:47:00,33.0,28.1,29.74,SW,228,0.0,4.0,82,0.00,,,0.00,0.0,WUHU216DAVISVP2,2013-03-10 20:47:00,
2013-03-10 20:52:00,33.0,28.1,29.74,West,281,0.0,2.0,82,0.00,,,0.00,0.0,WUHU216DAVISVP2,2013-03-10 20:52:00,
2013-03-10 20:57:00,32.9,28.3,29.74,SE,140,0.0,2.0,83,0.00,,,0.00,0.0,WUHU216DAVISVP2,2013-03-10 20:57:00,
2013-03-10 21:02:00,32.9,28.3,29.74,ENE,71,0.0,4.0,83,0.00,,,0.00,0.0,WUHU216DAVISVP2,2013-03-10 21:02:00,
2013-03-10 21:07:00,32.8,28.2,29.74,ESE,117,0.0,4.0,83,0.00,,,0.00,0.0,WUHU216DAVISVP2,2013-03-10 21:07:00,
2013-03-10 21:12:00,32.8,28.2,29.74,NE,35,0.0,4.0,83,0.00,,,0.00,0.0,WUHU216DAVISVP2,2013-03-10 21:12:00,
2013-03-10 21:17:00,32.7,28.1,29.74,NNE,22,0.0,4.0,83,0.00,,,0.00,0.0,WUHU216DAVISVP2,2013-03-10 21:17:00,
2013-03-10 21:22:00,32.7,28.1,29.74,East,83,1.0,2.0,83,0.00,,,0.00,0.0,WUHU216DAVISVP2,2013-03-10 21:22:00,
2013-03-10 21:27:00,32.7,28.1,29.74,SW,220,0.0,2.0,83,0.00,,,0.00,0.0,WUHU216DAVISVP2,2013-03-10 21:27:00,
2013-03-10 21:32:00,32.6,28.0,29.75,NNW,329,1.0,2.0,83,0.00,,,0.00,0.0,WUHU216DAVISVP2,2013-03-10 21:32:00,
2013-03-10 21:37:00,32.5,27.9,29.75,SE,126,0.0,2.0,83,0.00,,,0.00,0.0,WUHU216DAVISVP2,2013-03-10 21:37:00,
2013-03-10 21:42:00,32.4,27.8,29.75,North,355,0.0,5.0,83,0.00,,,0.00,0.0,WUHU216DAVISVP2,2013-03-10 21:42:00,
2013-03-10 21:47:00,32.4,27.8,29.75,NNW,342,0.0,5.0,83,0.00,,,0.00,0.0,WUHU216DAVISVP2,2013-03-10 21:47:00,
2013-03-10 21:52:00,32.3,27.7,29.75,NW,306,1.0,5.0,83,0.00,,,0.00,0.0,WUHU216DAVISVP2,2013-03-10 21:52:00,
2013-03-10 21:57:00,32.2,27.9,29.75,NNW,331,0.0,5.0,84,0.00,,,0.00,0.0,WUHU216DAVISVP2,2013-03-10 21:57:00,
2013-03-10 22:02:00,32.1,27.8,29.75,NE,36,0.0,2.0,84,0.00,,,0.00,0.0,WUHU216DAVISVP2,2013-03-10 22:02:00,
2013-03-10 22:07:00,32.1,27.8,29.75,North,5,0.0,2.0,84,0.00,,,0.00,0.0,WUHU216DAVISVP2,2013-03-10 22:07:00,
2013-03-10 22:12:00,32.1,27.8,29.74,WSW,256,1.0,7.0,84,0.00,,,0.00,0.0,WUHU216DAVISVP2,2013-03-10 22:12:00,
2013-03-10 22:17:00,32.0,27.7,29.74,WSW,254,0.0,7.0,84,0.00,,,0.00,0.0,WUHU216DAVISVP2,2013-03-10 22:17:00,
2013-03-10 22:22:00,32.0,27.7,29.74,NW,313,0.0,7.0,84,0.00,,,0.00,0.0,WUHU216DAVISVP2,2013-03-10 22:22:00,
2013-03-10 22:27:00,31.9,27.9,29.74,SW,233,0.0,7.0,85,0.00,,,0.00,0.0,WUHU216DAVISVP2,2013-03-10 22:27:00,
2013-03-10 22:32:00,32.0,28.0,29.74,WSW,242,0.0,2.0,85,0.00,,,0.00,0.0,WUHU216DAVISVP2,2013-03-10 22:32:00,
2013-03-10 22:37:00,32.0,28.0,29.74,SW,230,0.0,2.0,85,0.00,,,0.00,0.0,WUHU216DAVISVP2,2013-03-10 22:37:00,
2013-03-10 22:42:00,32.1,28.1,29.74,West,265,0.0,1.0,85,0.00,,,0.00,0.0,WUHU216DAVISVP2,2013-03-10 22:42:00,
2013-03-10 22:47:00,32.1,28.1,29.74,NW,322,0.0,2.0,85,0.00,,,0.00,0.0,WUHU216DAVISVP2,2013-03-10 22:47:00,
2013-03-10 22:52:00,32.2,28.2,29.74,NE,49,0.0,2.0,85,0.00,,,0.00,0.0,WUHU216DAVISVP2,2013-03-10 22:52:00,
2013-03-10 22:58:00,32.2,28.2,29.74,NNW,330,1.0,2.0,85,0.00,,,0.00,0.0,WUHU216DAVISVP2,2013-03-10 22:58:00,
2013-03-10 23:02:00,32.3,28.0,29.74,WSW,248,0.0,2.0,84,0.00,,,0.00,0.0,WUHU216DAVISVP2,2013-03-10 23:02:00,
2013-03-10 23:07:00,32.3,28.0,29.74,WSW,247,0.0,2.0,84,0.00,,,0.00,0.0,WUHU216DAVISVP2,2013-03-10 23:07:00,
2013-03-10 23:12:00,32.3,28.3,29.74,WNW,288,1.0,2.0,85,0.00,,,0.00,0.0,WUHU216DAVISVP2,2013-03-10 23:12:00,
2013-03-10 23:17:00,32.3,28.0,29.74,NW,316,0.0,4.0,84,0.00,,,0.00,0.0,WUHU216DAVISVP2,2013-03-10 23:17:00,
2013-03-10 23:22:00,32.3,28.0,29.74,WNW,293,0.0,4.0,84,0.00,,,0.00,0.0,WUHU216DAVISVP2,2013-03-10 23:22:00,
2013-03-10 23:28:00,32.3,28.0,29.74,NE,47,0.0,4.0,84,0.00,,,0.00,0.0,WUHU216DAVISVP2,2013-03-10 23:28:00,
2013-03-10 23:33:00,32.3,28.0,29.74,West,271,0.0,5.0,84,0.00,,,0.00,0.0,WUHU216DAVISVP2,2013-03-10 23:33:00,
2013-03-10 23:38:00,32.3,27.7,29.74,North,355,0.0,5.0,83,0.00,,,0.00,0.0,WUHU216DAVISVP2,2013-03-10 23:38:00,
2013-03-10 23:43:00,32.4,28.1,29.74,SW,236,0.0,5.0,84,0.00,,,0.00,0.0,WUHU216DAVISVP2,2013-03-10 23:43:00,
2013-03-10 23:48:00,32.4,27.8,29.74,WNW,291,0.0,5.0,83,0.00,,,0.00,0.0,WUHU216DAVISVP2,2013-03-10 23:48:00,
2013-03-10 23:53:00,32.4,27.8,29.74,WSW,238,0.0,5.0,83,0.00,,,0.00,0.0,WUHU216DAVISVP2,2013-03-10 23:53:00,
2013-03-10 23:57:00,32.4,28.1,29.74,South,175,0.0,4.0,84,0.00,,,0.00,0.0,WUHU216DAVISVP2,2013-03-10 23:57:00,